Wind From: 11-12-2017 06:00 Until: 12-12-2017 06:00 warning for: Wind Level: Orange info button

Power and phone distribution networks may be disrupted for relatively long periods., Roofs and chimneys can be damaged. , Tree branches may break. , Vehicles can be deported. , Traffic may be disrupted, particularly on secondary roads in forest areas. Limit your trips. , Limit your speed in highway driving, especially if you drive a vehicle or hitch sensitive to wind. , Do not go for walks in forests or along the coast., In town, be vigilant against possible falling objects., Do not work on roofs and do not touch any electrical line fallen on the ground., Store or secure sensitive objects to wind or likely to be damaged., Always install power generators outside buildings. 


Meteo18 Weather Cam more information Meteo18 Weather Cam


Thunder radar more information blitzortung!


Rain radar more information rain snow radar


Visit our other weather sites:

Template documentation
and downloads

And another site



Weather Underground History page Text

Daily Summary for June 28, 2017 Units:  English    Metric   Both
« Previous Day
Next Day »
Daily Weekly Monthly Yearly Custom
  High: Low: Average:
Temperature: 73 °F 59.7 °F 65.1 °F
Dew Point: 61.5 °F 54.1 °F 57.9 °F
Humidity: 93 % 54 % 78 %
Wind Speed: 19 mph 1 mph 6.4 mph
Wind Gust: 25 mph - -
Wind:- - SW
Pressure: 29.7 in 29.5 in -
Precipitation: 0.05 in    
Historical Graphs
 
 
Tabular Data for June 28, 2017
Time Temperature Dew Point Pressure Wind Wind Speed Wind Gust Humidity Rainfall Rate (Hourly)
00:02 64.9 °F 59.4 °F 29.7 in SW 11 mph 12 mph 82 % 0 in
00:12 64.8 °F 58.8 °F 29.7 in SW 9 mph 12 mph 81 % 0 in
00:17 64.8 °F 57.4 °F 29.7 in WSW 5 mph 12 mph 77 % 0 in
00:22 64.8 °F 57 °F 29.7 in WSW 7 mph 12 mph 76 % 0 in
00:32 64.8 °F 57 °F 29.7 in SW 7 mph 16 mph 76 % 0 in
00:37 64.6 °F 56.8 °F 29.7 in SW 9 mph 14 mph 76 % 0 in
00:42 64.6 °F 56.8 °F 29.7 in SSW 11 mph 14 mph 76 % 0 in
00:47 64.6 °F 57.2 °F 29.7 in West 4 mph 14 mph 77 % 0 in
00:52 64.4 °F 57 °F 29.7 in SW 3 mph 14 mph 77 % 0 in
00:57 64.2 °F 57.2 °F 29.6 in SW 4 mph 12 mph 78 % 0 in
01:02 64 °F 57.4 °F 29.6 in WSW 2 mph 12 mph 79 % 0 in
01:12 63.9 °F 57.6 °F 29.6 in WSW 5 mph 10 mph 80 % 0 in
01:17 63.9 °F 57.6 °F 29.6 in SSW 3 mph 7 mph 80 % 0 in
01:22 63.9 °F 57.6 °F 29.6 in WSW 3 mph 8 mph 80 % 0 in
01:32 63.9 °F 57.6 °F 29.6 in SW 6 mph 13 mph 80 % 0 in
01:37 63.7 °F 57.4 °F 29.6 in West 9 mph 15 mph 80 % 0 in
01:42 63.7 °F 57.7 °F 29.6 in WSW 8 mph 15 mph 81 % 0 in
01:47 63.7 °F 57.7 °F 29.6 in SW 5 mph 15 mph 81 % 0 in
01:52 63.7 °F 58.1 °F 29.6 in SW 3 mph 14 mph 82 % 0 in
01:57 63.5 °F 57.9 °F 29.6 in SW 3 mph 14 mph 82 % 0 in
02:02 63.3 °F 57.7 °F 29.6 in WSW 4 mph 14 mph 82 % 0 in
02:12 63.3 °F 58.1 °F 29.6 in WSW 4 mph 13 mph 83 % 0 in
02:17 63.1 °F 57.9 °F 29.6 in WSW 4 mph 12 mph 83 % 0 in
02:22 63.1 °F 58.3 °F 29.6 in West 3 mph 12 mph 84 % 0 in
02:27 63.1 °F 58.3 °F 29.6 in SW 9 mph 13 mph 84 % 0 in
02:32 63.1 °F 58.3 °F 29.6 in SW 3 mph 13 mph 84 % 0 in
02:37 63.1 °F 58.3 °F 29.6 in SW 5 mph 13 mph 84 % 0 in
02:42 63 °F 58.1 °F 29.6 in SW 9 mph 13 mph 84 % 0 in
02:52 63 °F 58.5 °F 29.6 in SW 10 mph 13 mph 85 % 0 in
02:57 63 °F 58.5 °F 29.6 in SSE 5 mph 16 mph 85 % 0 in
03:02 63 °F 58.5 °F 29.6 in SW 11 mph 16 mph 85 % 0 in
03:12 62.8 °F 58.3 °F 29.6 in SW 2 mph 13 mph 85 % 0 in
03:17 62.8 °F 58.5 °F 29.6 in WSW 6 mph 14 mph 86 % 0 in
03:22 62.8 °F 58.5 °F 29.6 in SW 9 mph 14 mph 86 % 0 in
03:32 62.6 °F 58.3 °F 29.6 in SSW 6 mph 13 mph 86 % 0 in
03:37 62.4 °F 58.1 °F 29.6 in WSW 4 mph 13 mph 86 % 0 in
03:42 62.4 °F 58.1 °F 29.6 in SW 6 mph 11 mph 86 % 0 in
03:47 62.4 °F 58.5 °F 29.6 in WSW 5 mph 11 mph 87 % 0 in
03:52 62.4 °F 58.5 °F 29.6 in SW 5 mph 11 mph 87 % 0 in
03:57 62.2 °F 58.3 °F 29.6 in SW 4 mph 11 mph 87 % 0 in
04:02 62.2 °F 58.3 °F 29.6 in WSW 8 mph 11 mph 87 % 0 in
04:12 62.1 °F 58.5 °F 29.6 in WSW 8 mph 11 mph 88 % 0 in
04:17 61.9 °F 58.3 °F 29.6 in WSW 9 mph 12 mph 88 % 0 in
04:22 61.9 °F 58.3 °F 29.6 in SSE 5 mph 12 mph 88 % 0 in
04:27 61.7 °F 58.1 °F 29.6 in SW 9 mph 12 mph 88 % 0 in
04:32 61.5 °F 57.9 °F 29.6 in SW 5 mph 11 mph 88 % 0 in
04:37 61.3 °F 58.1 °F 29.6 in WSW 6 mph 14 mph 89 % 0 in
04:42 61.2 °F 57.9 °F 29.6 in South 5 mph 14 mph 89 % 0 in
04:47 61.2 °F 57.9 °F 29.6 in SSW 7 mph 14 mph 89 % 0 in
04:52 61.2 °F 57.9 °F 29.6 in SW 6 mph 14 mph 89 % 0 in
04:57 61 °F 57.7 °F 29.6 in West 5 mph 14 mph 89 % 0 in
05:02 61 °F 57.7 °F 29.6 in SW 9 mph 12 mph 89 % 0 in
05:12 61 °F 58.1 °F 29.6 in SSW 9 mph 12 mph 90 % 0 in
05:17 60.8 °F 57.9 °F 29.6 in SW 5 mph 12 mph 90 % 0 in
05:22 60.6 °F 57.7 °F 29.6 in SW 8 mph 13 mph 90 % 0 in
05:32 60.6 °F 57.7 °F 29.6 in SW 8 mph 14 mph 90 % 0 in
05:42 60.6 °F 57.7 °F 29.6 in SW 3 mph 14 mph 90 % 0 in
05:47 60.6 °F 57.7 °F 29.6 in WSW 3 mph 14 mph 90 % 0 in
05:52 60.6 °F 57.7 °F 29.6 in SW 5 mph 14 mph 90 % 0 in
05:57 60.6 °F 57.7 °F 29.6 in WSW 8 mph 14 mph 90 % 0 in
06:02 60.8 °F 57.9 °F 29.6 in SSW 6 mph 12 mph 90 % 0 in
06:12 61 °F 58.1 °F 29.6 in SW 10 mph 12 mph 90 % 0 in
06:17 61 °F 58.1 °F 29.6 in SSW 9 mph 12 mph 90 % 0 in
06:22 61 °F 58.1 °F 29.6 in SW 6 mph 13 mph 90 % 0 in
06:32 61.2 °F 58.3 °F 29.6 in SW 8 mph 13 mph 90 % 0 in
06:37 61.2 °F 58.3 °F 29.6 in SSW 8 mph 13 mph 90 % 0 in
06:42 61.2 °F 57.9 °F 29.6 in SW 9 mph 13 mph 89 % 0 in
06:47 61.2 °F 57.9 °F 29.6 in SSW 4 mph 13 mph 89 % 0 in
06:52 61.2 °F 57.9 °F 29.6 in SSW 8 mph 14 mph 89 % 0 in
07:02 61.2 °F 58.3 °F 29.6 in SW 6 mph 14 mph 90 % 0 in
07:07 61 °F 58.1 °F 29.6 in SSW 5 mph 14 mph 90 % 0 in
07:12 60.8 °F 58.1 °F 29.6 in SW 4 mph 15 mph 91 % 0 in
07:17 60.6 °F 58.3 °F 29.6 in SSW 5 mph 15 mph 92 % 0 in
07:22 60.4 °F 58.1 °F 29.6 in SW 3 mph 11 mph 92 % 0 in
07:32 60.4 °F 58.1 °F 29.6 in SW 8 mph 11 mph 92 % 0 in
07:42 60.4 °F 58.5 °F 29.6 in SSW 7 mph 9 mph 93 % 0 in
07:47 60.6 °F 58.3 °F 29.6 in WSW 6 mph 9 mph 92 % 0 in
07:52 60.6 °F 58.3 °F 29.6 in WSW 5 mph 11 mph 92 % 0 in
07:57 60.8 °F 58.5 °F 29.6 in SSW 5 mph 11 mph 92 % 0 in
08:02 61 °F 58.6 °F 29.6 in SW 9 mph 9 mph 92 % 0 in
08:12 61.2 °F 58.5 °F 29.6 in SSW 8 mph 9 mph 91 % 0 in
08:17 61.5 °F 58.8 °F 29.6 in SSW 4 mph 9 mph 91 % 0 in
08:22 61.9 °F 59 °F 29.6 in SSE 6 mph 12 mph 90 % 0 in
08:27 62.1 °F 58.8 °F 29.6 in SW 7 mph 12 mph 89 % 0 in
08:32 62.2 °F 59 °F 29.6 in WSW 7 mph 12 mph 89 % 0 in
08:42 62.8 °F 59.2 °F 29.6 in SW 5 mph 12 mph 88 % 0 in
08:52 63 °F 59 °F 29.6 in SW 7 mph 12 mph 87 % 0 in
08:57 63 °F 58.6 °F 29.6 in SW 8 mph 12 mph 86 % 0 in
09:02 63 °F 58.6 °F 29.6 in South 7 mph 13 mph 86 % 0 in
09:12 63.1 °F 58.6 °F 29.6 in WSW 9 mph 13 mph 85 % 0 in
09:17 63.7 °F 58.8 °F 29.6 in SSW 7 mph 13 mph 84 % 0 in
09:22 64.2 °F 59 °F 29.6 in SW 5 mph 15 mph 83 % 0 in
09:27 64.2 °F 58.6 °F 29.6 in WSW 8 mph 15 mph 82 % 0 in
09:32 64.6 °F 59 °F 29.6 in South 9 mph 15 mph 82 % 0 in
09:37 64.9 °F 59.7 °F 29.6 in WSW 3 mph 15 mph 83 % 0 in
09:42 65.5 °F 59.2 °F 29.6 in WSW 9 mph 15 mph 80 % 0 in
09:47 65.5 °F 59.5 °F 29.6 in WSW 2 mph 15 mph 81 % 0 in
09:57 65.7 °F 58.6 °F 29.6 in SW 10 mph 13 mph 78 % 0 in
10:02 65.8 °F 58.8 °F 29.6 in WSW 9 mph 13 mph 78 % 0 in
10:12 65.7 °F 58.3 °F 29.6 in WSW 9 mph 14 mph 77 % 0 in
10:17 65.7 °F 58.6 °F 29.6 in WSW 2 mph 14 mph 78 % 0 in
10:22 65.7 °F 59 °F 29.6 in SW 1 mph 13 mph 79 % 0 in
10:32 66.6 °F 59.2 °F 29.6 in SW 5 mph 13 mph 77 % 0 in
10:37 66.6 °F 58.5 °F 29.6 in SSW 6 mph 13 mph 75 % 0 in
10:42 66.2 °F 58.1 °F 29.6 in SW 8 mph 13 mph 75 % 0 in
10:47 66 °F 59 °F 29.6 in South 7 mph 13 mph 78 % 0 in
10:52 66.2 °F 59.5 °F 29.6 in SSE 8 mph 14 mph 79 % 0 in
11:02 66.4 °F 59 °F 29.6 in SSE 3 mph 11 mph 77 % 0 in
11:12 66.4 °F 59 °F 29.6 in SW 6 mph 11 mph 77 % 0 in
11:17 66.7 °F 59 °F 29.6 in SSW 7 mph 11 mph 76 % 0 in
11:22 67.3 °F 59 °F 29.6 in South 6 mph 11 mph 75 % 0 in
11:27 67.3 °F 59 °F 29.6 in SW 5 mph 11 mph 75 % 0 in
11:32 67.6 °F 59.4 °F 29.6 in SSW 5 mph 11 mph 75 % 0 in
11:42 67.3 °F 58.3 °F 29.6 in SW 7 mph 12 mph 73 % 0 in
11:52 66.7 °F 58.6 °F 29.6 in SSW 8 mph 14 mph 75 % 0 in
11:57 66.6 °F 59.5 °F 29.6 in South 3 mph 14 mph 78 % 0 in
12:02 65.8 °F 59.9 °F 29.6 in SW 4 mph 14 mph 81 % 0 in
12:12 65.7 °F 60.6 °F 29.6 in South 5 mph 11 mph 84 % 0 in
12:17 65.7 °F 60.1 °F 29.6 in SSW 10 mph 11 mph 82 % 0 in
12:22 66 °F 60.6 °F 29.6 in WSW 8 mph 12 mph 83 % 0 in
12:32 66.7 °F 60.8 °F 29.6 in SW 11 mph 12 mph 81 % 0 in
12:37 66.4 °F 61 °F 29.6 in SSW 9 mph 16 mph 83 % 0 in
12:42 66 °F 60.4 °F 29.6 in SSW 9 mph 16 mph 82 % 0 in
12:47 66 °F 60.4 °F 29.6 in SW 12 mph 16 mph 82 % 0 in
12:57 66.7 °F 60.4 °F 29.6 in SW 8 mph 17 mph 80 % 0 in
13:02 66.7 °F 60.1 °F 29.6 in South 9 mph 17 mph 79 % 0 in
13:07 66.9 °F 59.2 °F 29.6 in SW 4 mph 17 mph 76 % 0 in
13:12 66.9 °F 59.2 °F 29.6 in SSW 12 mph 18 mph 76 % 0 in
13:22 65.1 °F 59.2 °F 29.6 in WSW 12 mph 20 mph 81 % 0 in
13:27 64 °F 59.7 °F 29.6 in SW 5 mph 20 mph 86 % 0 in
13:32 63.3 °F 59.7 °F 29.6 in South 4 mph 18 mph 88 % 0.02 in
13:42 63.1 °F 60.1 °F 29.6 in SW 4 mph 13 mph 90 % 0.02 in
13:52 63.7 °F 60.6 °F 29.6 in SW 5 mph 12 mph 90 % 0.02 in
13:57 63.9 °F 60.6 °F 29.6 in SW 8 mph 12 mph 89 % 0.02 in
14:02 64.6 °F 61.3 °F 29.6 in WSW 7 mph 15 mph 89 % 0.02 in
14:12 64.9 °F 60.6 °F 29.6 in WSW 3 mph 15 mph 86 % 0.02 in
14:17 64.9 °F 60.6 °F 29.6 in WSW 7 mph 15 mph 86 % 0.02 in
14:22 64.6 °F 61 °F 29.6 in WNW 2 mph 14 mph 88 % 0.03 in
14:32 64 °F 60.4 °F 29.6 in WSW 5 mph 13 mph 88 % 0.02 in
14:42 64.9 °F 59.9 °F 29.6 in West 4 mph 10 mph 84 % 0.02 in
14:52 66.4 °F 59.7 °F 29.6 in West 7 mph 14 mph 79 % 0.02 in
14:57 66.9 °F 60.3 °F 29.6 in West 6 mph 14 mph 79 % 0.02 in
15:02 67.6 °F 60.6 °F 29.6 in West 4 mph 14 mph 78 % 0.02 in
15:12 67.5 °F 58.8 °F 29.6 in West 5 mph 13 mph 74 % 0.02 in
15:17 67.3 °F 59 °F 29.6 in WSW 6 mph 12 mph 75 % 0.02 in
15:22 67.3 °F 59.5 °F 29.6 in West 7 mph 16 mph 76 % 0.02 in
15:27 67.3 °F 59.9 °F 29.6 in West 4 mph 16 mph 77 % 0 in
15:32 67.5 °F 60.4 °F 29.6 in WNW 3 mph 15 mph 78 % 0 in
15:37 67.8 °F 59.9 °F 29.6 in West 5 mph 12 mph 76 % 0 in
15:42 68 °F 60.1 °F 29.6 in WSW 6 mph 12 mph 76 % 0 in
15:47 68.2 °F 59.9 °F 29.5 in WSW 5 mph 11 mph 75 % 0 in
15:52 68 °F 59 °F 29.6 in SW 3 mph 9 mph 73 % 0 in
15:57 67.6 °F 60.6 °F 29.6 in SSW 4 mph 12 mph 78 % 0.01 in
16:02 67.1 °F 61.3 °F 29.5 in SW 4 mph 12 mph 82 % 0.01 in
16:12 67.6 °F 61.5 °F 29.5 in WSW 1 mph 12 mph 81 % 0.01 in
16:17 68 °F 60.8 °F 29.5 in WSW 4 mph 7 mph 78 % 0.01 in
16:22 68.5 °F 60.6 °F 29.5 in West 3 mph 7 mph 76 % 0.01 in
16:27 69.4 °F 61.2 °F 29.5 in SSE 10 mph 10 mph 75 % 0.01 in
16:32 70.2 °F 59.5 °F 29.5 in WSW 3 mph 9 mph 69 % 0.01 in
16:42 70 °F 57.2 °F 29.5 in WSW 8 mph 13 mph 64 % 0.01 in
16:47 70.9 °F 58.1 °F 29.5 in SW 12 mph 17 mph 64 % 0.01 in
16:52 71.1 °F 57.4 °F 29.5 in WSW 12 mph 17 mph 62 % 0.01 in
16:57 71.4 °F 58.1 °F 29.5 in SSW 6 mph 15 mph 63 % 0 in
17:02 72 °F 56.3 °F 29.5 in WSW 5 mph 14 mph 58 % 0 in
17:12 72.7 °F 56.1 °F 29.5 in WSW 11 mph 15 mph 56 % 0 in
17:17 72.1 °F 55 °F 29.5 in WSW 11 mph 16 mph 55 % 0 in
17:22 72.1 °F 56.5 °F 29.5 in SSW 5 mph 17 mph 58 % 0 in
17:27 72.3 °F 55.8 °F 29.5 in South 8 mph 17 mph 56 % 0 in
17:32 72.5 °F 55.9 °F 29.5 in West 7 mph 17 mph 56 % 0 in
17:37 72.7 °F 56.5 °F 29.5 in West 4 mph 17 mph 57 % 0 in
17:42 73 °F 55.9 °F 29.5 in SW 12 mph 17 mph 55 % 0 in
17:47 72.9 °F 55.8 °F 29.5 in WSW 13 mph 15 mph 55 % 0 in
17:52 73 °F 56.5 °F 29.5 in SW 3 mph 15 mph 56 % 0 in
17:57 72.9 °F 55.2 °F 29.5 in SSW 9 mph 16 mph 54 % 0 in
18:02 72.1 °F 55 °F 29.5 in West 5 mph 16 mph 55 % 0 in
18:12 72.1 °F 55.6 °F 29.5 in West 6 mph 14 mph 56 % 0 in
18:17 72 °F 56.3 °F 29.5 in SW 8 mph 13 mph 58 % 0 in
18:22 71.4 °F 56.3 °F 29.5 in SW 7 mph 13 mph 59 % 0 in
18:27 71.1 °F 55.9 °F 29.5 in West 11 mph 20 mph 59 % 0 in
18:32 70.7 °F 56.1 °F 29.5 in WSW 12 mph 20 mph 60 % 0 in
18:37 70.5 °F 56.5 °F 29.5 in WSW 13 mph 25 mph 61 % 0 in
18:42 70.5 °F 55.9 °F 29.5 in West 6 mph 25 mph 60 % 0 in
18:47 70.9 °F 55.4 °F 29.5 in WSW 10 mph 25 mph 58 % 0 in
18:52 71.1 °F 55.9 °F 29.5 in SW 19 mph 25 mph 59 % 0 in
18:57 70.9 °F 55.4 °F 29.5 in SSW 9 mph 21 mph 58 % 0 in
19:02 70.9 °F 55.4 °F 29.5 in WSW 11 mph 21 mph 58 % 0 in
19:12 70.5 °F 55 °F 29.5 in SW 6 mph 21 mph 58 % 0 in
19:22 70.3 °F 55.8 °F 29.5 in West 10 mph 19 mph 60 % 0 in
19:32 70.3 °F 56.7 °F 29.5 in SW 10 mph 21 mph 62 % 0 in
19:37 70.3 °F 57.6 °F 29.5 in West 7 mph 21 mph 64 % 0 in
19:42 70.2 °F 57.4 °F 29.5 in WSW 10 mph 19 mph 64 % 0 in
19:52 68.7 °F 57.4 °F 29.5 in SW 7 mph 18 mph 67 % 0 in
19:57 68.4 °F 57 °F 29.5 in WSW 7 mph 16 mph 67 % 0 in
20:02 68.2 °F 57.2 °F 29.5 in SSW 5 mph 16 mph 68 % 0 in
20:12 68.5 °F 57.2 °F 29.5 in WSW 7 mph 15 mph 67 % 0 in
20:17 68.4 °F 57.4 °F 29.5 in West 12 mph 12 mph 68 % 0 in
20:27 67.8 °F 57.2 °F 29.5 in West 5 mph 16 mph 69 % 0 in
20:32 67.6 °F 57 °F 29.5 in SW 16 mph 16 mph 69 % 0 in
20:37 67.5 °F 57 °F 29.5 in SW 4 mph 14 mph 69 % 0 in
20:42 67.6 °F 56.7 °F 29.5 in West 4 mph 16 mph 68 % 0 in
20:47 68 °F 56.7 °F 29.5 in WSW 4 mph 16 mph 67 % 0 in
20:52 68 °F 56.3 °F 29.5 in SW 12 mph 16 mph 66 % 0 in
20:57 67.5 °F 54.9 °F 29.5 in South 11 mph 14 mph 64 % 0 in
21:02 67.1 °F 54.1 °F 29.5 in WSW 13 mph 14 mph 63 % 0 in
21:12 66.4 °F 54.3 °F 29.5 in SSW 10 mph 14 mph 65 % 0 in
21:17 65.8 °F 54.1 °F 29.5 in West 7 mph 15 mph 66 % 0 in
21:22 65.7 °F 54.3 °F 29.5 in SW 4 mph 15 mph 67 % 0 in
21:27 65.5 °F 54.7 °F 29.5 in SSW 14 mph 14 mph 68 % 0 in
21:37 64.9 °F 54.9 °F 29.5 in SW 7 mph 14 mph 70 % 0 in
21:42 64.8 °F 54.7 °F 29.5 in SW 6 mph 14 mph 70 % 0 in
21:47 64.6 °F 55 °F 29.5 in SW 3 mph 11 mph 71 % 0 in
21:52 64 °F 54.9 °F 29.5 in SW 5 mph 11 mph 72 % 0 in
21:57 63.9 °F 55 °F 29.5 in SW 7 mph 11 mph 73 % 0 in
22:02 63.5 °F 55 °F 29.5 in SW 4 mph 10 mph 74 % 0 in
22:12 63.3 °F 55.2 °F 29.5 in SW 3 mph 10 mph 75 % 0 in
22:17 63.1 °F 55 °F 29.5 in SW 3 mph 10 mph 75 % 0 in
22:22 63 °F 55.2 °F 29.5 in SW 2 mph 10 mph 76 % 0 in
22:32 62.2 °F 54.9 °F 29.6 in SW 4 mph 8 mph 77 % 0 in
22:37 62.1 °F 55 °F 29.6 in SW 6 mph 6 mph 78 % 0 in
22:47 62.1 °F 55 °F 29.6 in SW 3 mph 7 mph 78 % 0 in
22:52 61.7 °F 55 °F 29.6 in SSW 1 mph 7 mph 79 % 0 in
23:02 60.6 °F 54.7 °F 29.6 in SSW 1 mph 6 mph 81 % 0 in
23:12 60.4 °F 55.2 °F 29.6 in SSW 1 mph 3 mph 83 % 0 in
23:17 60.3 °F 55 °F 29.6 in SW 2 mph 4 mph 83 % 0 in
23:22 60.1 °F 55.2 °F 29.6 in SW 1 mph 4 mph 84 % 0 in
23:27 60.3 °F 55.4 °F 29.6 in SW 1 mph 3 mph 84 % 0 in
23:32 60.3 °F 55.4 °F 29.6 in SW 2 mph 3 mph 84 % 0 in
23:37 60.3 °F 55 °F 29.6 in SSW 1 mph 2 mph 83 % 0 in
23:42 60.3 °F 55.4 °F 29.6 in SW 2 mph 3 mph 84 % 0 in
23:47 60.1 °F 55.2 °F 29.6 in SW 2 mph 4 mph 84 % 0 in
23:52 59.7 °F 55.2 °F 29.6 in SSW 1 mph 4 mph 85 % 0 in
Meteo18
Compliments of Weather Underground - 4 mb

Script developed by  Jim McMurry - jmcmurry@mwt.net Adapted for the template by  Wim van der Kuil - Leuven-Template.eu

You find our weather info also at:

European Weather Network

Weather Underground

Equipment we use:

Weather-station
Davis Vue

Weather-program
Meteohub

Weather-server
Raspberry PI 2 B+

Provider
1 and 1

Davis Vue

Meteohub

Raspberry PI 2 B+

1 and 1